www.pogodaiklimat.ru

Погода и климат >> Архив погоды >> Марокко >> Эль-Хосейма


ПОГОДА в Эль-Хосейме

  • Прогноз погоды в Эль-Хосейме
  • Монитор погоды в Эль-Хосейме

АРХИВ ПОГОДЫ в Эль-Хосейме

Время (UTC), дата Ветер
(напр.,м/с)
 
Видим.   Явления Облачность Т
(С)
Тd
(С)
f
(%)
Тe
(С)
Тes
(С)
Комфортность P
(гПа)
Po
(гПа)
Тmin
(С)
Tmax
(С)
R
(мм)
R24
(мм)
S
(см)
18 16.08 СЗ 4-6
{6}
10 км 3/3 600 м
[St]
+25.6 +22.0 81 +33 +33 очень
душно
1015.2 1013.5 +27.0
21 16.08 СЗ 2-6
{6}
6000 м 3/3 400 м
[St]
+23.8 +22.1 90 +31 +31 очень
душно
1016.1 1014.4
00 17.08 З 2-2
{4}
6000 м 4/4 400 м
[St]
+23.1 +21.5 91 +31 +31 очень
душно
1016.2 1014.5
03 17.08 СЗ 2-4
{4}
6000 м 5/5 400 м
[St]
+23.2 +21.8 92 +31 +31 очень
душно
1014.9 1013.2
06 17.08 С 2-2
{4}
6000 м 6/6 400 м
[St]
+22.5 +21.0 91 +29 +29 очень
душно
1015.0 1013.3 +22.1
09 17.08 С 6-12
{14}
6000 м 5/4 400 м
[St]
+25.5 +20.5 74 +32 +34 очень
душно
1015.4 1013.7
12 17.08 СЗ 10-14
{14}
6000 м 4/4 400 м
[St]
+26.8 +21.2 71 +34 +34 очень
душно
1014.9 1013.2
15 17.08 С 8-14
{16}
7000 м 3/3 600 м
[Cu hum]
+26.6 +20.0 67 +33 +34 очень
душно
1013.5 1011.8
18 17.08 С 6-6
{8}
15 км ясно +25.1 +21.6 81 +32 +32 очень
душно
1012.4 1010.7 +27.7
21 17.08 СЗ 2-4
{4}
10 км 4/4 400 м
[St]
+23.6 +21.7 89 +30 +30 очень
душно
1013.2 1011.5
00 18.08 СЗ 2-4
{4}
10 км 8/8 300 м
[St]
+23.9 +22.0 89 +31 +31 очень
душно
1012.9 1011.2
03 18.08 штиль 0-2
{2}
7000 м 9/9 300 м
[St]
+23.6 +21.5 88 +30 +30 очень
душно
1012.2 1010.5
06 18.08 ЮЗ 6-7
{7}
7000 м 10/10 300 м
[St]
+23.8 +20.7 83 +30 +30 очень
душно
1012.3 1010.6 +23.0
09 18.08 С 8-10
{14}
8000 м ясно +25.7 +21.1 76 +32 +34 очень
душно
1013.8 1012.1
12 18.08 С 8-9
{11}
10 км ясно +26.6 +21.1 72 +34 +37 очень
душно
1014.3 1012.6
15 18.08 С 8-10
{16}
10 км ясно +29.2 +13.8 39 +31 +33 жарко 1013.3 1011.6
18 18.08 С 4-4
{16}
15 км ясно +30.2 +12.6 34 +31 +32 жарко 1012.2 1010.5 +31.6
21 18.08 Ю 2-4
{6}
15 км ясно +25.3 +13.1 47 +27 +27 жарко 1013.8 1012.1
00 19.08 штиль 0-2
{6}
15 км ясно +22.7 +12.9 54 +26 +26 жарко 1013.9 1012.2
03 19.08 ЮВ 1 14 км 4/0
[Ac trans]
+21.0 +12.2 57 +24 +24 комфорт 1013.1 1011.5
06 19.08 Ю 2-6
{6}
15 км ясно +20.1 +12.3 61 +23 +23 комфорт 1013.6 1011.9 +18.9
09 19.08 С 2-4
{14}
15 км ясно +31.8 +12.6 31 +32 +42 жарко 1014.1 1012.4
12 19.08 С 12-16
{19}
15 км ясно +27.0 +20.6 68 +34 +34 очень
душно
1014.1 1012.4
15 19.08 С 8-16
{16}
15 км ясно +29.4 +15.5 43 +32 +34 душно 1012.8 1011.1
18 19.08 СВ 8-10
{10}
15 км ясно +29.2 +14.0 39 +31 +31 жарко 1012.6 1010.9 +33.0
21 19.08 З 2 15 км ясно +25.9 +13.8 47 +28 +28 жарко 1013.8 1012.1
00 20.08 Ю 2 15 км ясно +24.1 +15.8 60 +27 +27 жарко 1014.0 1012.3
03 20.08 Ю 4 15 км ясно +22.7 +15.1 62 +27 +27 душно 1013.8 1012.1
06 20.08 Ю 4 15 км ясно +21.1 +12.6 58 +23 +23 комфорт 1014.4 1012.7 +20.3
09 20.08 С 6-12
{12}
15 км ясно +27.7 +14.0 43 +30 +33 жарко 1015.2 1013.5
12 20.08 С 12-15
{15}
15 км ясно +26.2 +16.2 54 +30 +30 душно 1015.5 1013.8
15 20.08 С 4-10
{16}
15 км ясно +27.5 +14.8 46 +30 +38 жарко 1014.7 1013.0
18 20.08 С 6-8
{17}
15 км ясно +25.5 +14.6 51 +28 +28 жарко 1014.4 1012.7 +30.1
21 20.08 С 2-4
{4}
15 км ясно +22.0 +19.9 88 +28 +28 душно 1015.9 1014.2
00 21.08 ЮЗ 4-6
{6}
15 км ясно +21.5 +19.6 89 +27 +27 душно 1016.4 1014.7
03 21.08 ЮВ 2-4
{4}
15 км ясно +20.4 +18.2 87 +25 +25 комфорт 1016.1 1014.4
06 21.08 Ю 2-4
{4}
15 км ясно +18.3 +16.3 88 +19 +19 1016.0 1014.3 +17.8
09 21.08 С 4-8
{8}
10 км ясно +25.0 +19.4 71 +30 +36 душно 1016.5 1014.8
12 21.08 С 10-17
{17}
8000 м ясно +26.7 +20.5 69 +33 +34 очень
душно
1015.9 1014.2
15 21.08 С 12-19
{19}
10 км 5/5 600 м
[Cu Sc]
+26.7 +21.7 74 +34 +34 очень
душно
1014.9 1013.2
18 21.08 В 12-17
{19}
10 км 3/3 600 м
[Cu med, cong]
+28.2 +20.0 61 +34 +34 очень
душно
1014.6 1012.9 +29.2
21 21.08 СВ 4-8
{16}
15 км ясно +25.7 +20.9 75 +32 +32 очень
душно
1016.6 1014.9
00 22.08 СВ 8-12
{16}
15 км ясно +25.0 +20.3 75 +31 +31 очень
душно
1017.2 1015.5
03 22.08 В 7 н/о ясно +24.2 +20.1 78 +30 +30 очень
душно
1016.3 1014.7
06 22.08 СВ 8-10
{12}
10 км 4/4 480 м
[Cu Sc]
+23.9 +20.0 79 +29 +29 душно 1016.2 1014.5 +23.4
09 22.08 С 10-14
{16}
10 км 4/4 480 м
[Cu Sc]
+27.3 +20.9 68 +34 +34 очень
душно
1016.2 1014.5
12 22.08 СВ 19-29
{35}
10 км 3/3 480 м
[Cu med, cong]
+29.4 +20.0 57 +36 +36 очень
душно
1015.0 1013.3
15 22.08 СВ 18-35
{35}
10 км 1/1 600 м
[Cu med, cong]
+29.5 +19.8 56 +36 +36 очень
душно
1014.6 1012.9
18 22.08 СВ 8-16
{19}
10 км 4/4 900 м
[Sc Ac trans]
+27.2 +19.4 62 +33 +33 очень
душно
1015.0 1013.3 +30.5
21 22.08 В 10-17
{17}
15 км ясно +26.3 +18.4 62 +31 +31 душно 1016.4 1014.7
00 23.08 В 2-6
{6}
15 км ясно +25.1 +15.1 54 +28 +28 жарко 1016.3 1014.6
03 23.08 штиль 0 н/о ясно +23.0 +16.1 65 +27 +27 душно 1015.5 1013.9
06 23.08 штиль 0-2
{2}
15 км ясно +20.2 +15.2 73 +22 +23 комфорт 1016.0 1014.3 +20.2
09 23.08 СЗ 6-14
{14}
15 км 1/1 600 м
[Cu hum]
+25.9 +18.8 65 +31 +34 очень
душно
1017.0 1015.3
12 23.08 С 14-17
{17}
15 км 4/4 600 м
[Cu hum]
+27.8 +19.1 59 +33 +33 очень
душно
1016.2 1014.5

 

Местоположение метеостанции Эль-Хосейма (Марокко): широта 35.18 долгота -3.85 высота над уровнем моря 14 м.

В архиве по умолчанию представлена погода в Эль-Хосейме за последнюю неделю. Архивные данные за месяц целиком и за предыдущие месяцы, начиная с января 2011 года, Вы можете получить, выбрав интересующий диапазон дат из раскрывающегося списка и нажав кнопку "Ввод!".


*Определитесь, кто Вы:
робот инопланетянин человек

Внимание! Время в таблицах - всемирное. Для получения местного времени необходимо прибавить поправку, которая равна 0 ч.

Смотрите также архив погоды в соседних городах и на ближайших метеорологических станциях:

Погода в Аль-Аруи (Марокко) (79 км)
Погода в Мелилье (Испания) (83 км)
Погода в Тазе (Марокко) (108 км)
Погода в Шавене (Марокко) (132 км)
Погода в Тетуане (Марокко) (141 км)
Погода в Сеуте (Испания) (157 км)
Погода в Фуэнхироле (Испания) (166 км)
Погода Гибралтаре (Гибралтар) (173 км)
Погода в Фесе (Марокко) (173 км)
Погода в Мотриле - клуб Наутико (Испания) (174 км)

Пояснения к столбцам:

Ветер - указаны скорость ветра в м/с - средняя за 10 мин, порывы в срок и между сроками (в фигурных скобках) и направление, откуда дует ветер: С - северный, СВ - северо-восточный, В - восточный, ЮВ - юго-восточный, Ю - южный, ЮЗ - юго-западный, З - западный, СЗ - северо-западный.
Видимость - горизонтальная дальность видимости в метрах или километрах. При видимости от 1 до 10 км при отсутствии осадков обычно наблюдается дымка, при ухудшении видимости до 1 км и менее - туман. В сухую погоду видимость может ухудшаться дымом, пылью или мглою.
Явления - указаны атмосферные явления, наблюдавшиеся в срок или в последний час перед сроком; фигурными скобками обозначены явления, наблюдавшиеся между сроками (за 1-3 часа до срока); квадратными скобками обозначены град или гололедные отложения с указанием их диаметра в мм.
Облачность - указаны через наклонную черту общая и нижняя облачность в баллах и высота нижней границы облаков в метрах; квадратными скобками обозначены формы облаков: Ci - перистые, Cs - перисто-слоистые, Cc - перисто-кучевые, Ac - высококучевые, As - высокослоистые, Sc - слоисто-кучевые, Ns - слоисто-дождевые, Cu - кучевые, Cb - кучево-дождевые. Подробнее классификацию облаков см. в Атласе облаков (PDF).
T - Температура воздуха - температура, измеренная на высоте 2 м над землей.
Td - Температура точки росы - температура, при понижении до которой содержащийся в воздухе водяной пар достигнет насыщения.
f - Относительная влажность воздуха - влажноcть воздуха, измеренная на высоте 2 м над землей.
Te - Эффективная температура - температура, которую ощущает одетый по сезону человек в тени. Характеристика душности погоды. При расчете учитывается влияние влажности воздуха и скорости ветра на теплоощущения человека.
Tes - Эффективная температура на солнце - температура, которую ощущает человек, с поправкой на солнечный нагрев. Характеристика знойности погоды. Зависит от высоты солнца над горизонтом, облачности и скорости ветра. Ночью, в пасмурную погоду, а также при ветре 12 м/с и более поправка равна нулю.
P - Атмосферное давление - приведенное к уровню моря атмосферное давление.
Po - Атмосферное давление - измеренное на уровне метеостанции атмосферное давление.
Tmin - Минимальная температура - минимум температуры воздуха на высоте 2 м над землей.
Tmax - Максимальная температура - максимум температуры воздуха на высоте 2 м над землей.
R - Количество осадков - Количество выпавших осадков за период времени, мм. При наведении курсора мыши на число - период времени, за который выпало указанное количество осадков.
R24 - Количество осадков - Количество выпавших осадков за 24 часа, мм.
S - Снежный покров - Высота снежного покрова, см. При наведении курсора мыши на число - состояние снежного покрова и степень покрытия местности в баллах.